• Em Portugal
  • Lista de países
  • Para 7 dias
  • Temperatura da água
  • Mapas de satélite
  • Mapa do tempo
  • Widgets de tempo
  • user-avatar
    Iniciar Sessão

    Previsão horária em Oita

    Hoje, 24 Setembro, Segunda-feira

    Tempo Temperatura Precipitação Vento Pressão Humidade
    00:00 +23°C° 0 mm 1 m/s 756 mmHg 74%
    01:00 +23°C° 0 mm 1 m/s 756 mmHg 73%
    02:00 +21°C° 0 mm 0 m/s 756 mmHg 72%
    03:00 +21°C° 0 mm 0 m/s 756 mmHg 70%
    04:00 +23°C° 0 mm 1 m/s 756 mmHg 70%
    05:00 +23°C° 0 mm 1 m/s 756 mmHg 70%
    06:00 +23°C° 0 mm 1 m/s 756 mmHg 69%
    07:00 +23°C° 0.1 mm 1 m/s 756 mmHg 72%
    08:00 +23°C° 0.1 mm 2 m/s 756 mmHg 75%
    09:00 +23°C° 0 mm 2 m/s 756 mmHg 79%
    10:00 +23°C° 0.2 mm 2 m/s 756 mmHg 80%
    11:00 +24°C° 0.2 mm 2 m/s 756 mmHg 81%
    12:00 +24°C° 0.2 mm 2 m/s 756 mmHg 82%
    13:00 +23°C° 0.7 mm 1 m/s 756 mmHg 85%
    14:00 +23°C° 0.7 mm 1 m/s 756 mmHg 88%
    15:00 +23°C° 0 mm 1 m/s 756 mmHg 91%
    16:00 +21°C° 0.3 mm 2 m/s 756 mmHg 91%
    17:00 +21°C° 0.3 mm 2 m/s 756 mmHg 91%
    18:00 +21°C° 0.3 mm 2 m/s 756 mmHg 91%
    19:00 +21°C° 0.3 mm 2 m/s 756 mmHg 92%
    20:00 +21°C° 0.3 mm 2 m/s 756 mmHg 93%
    21:00 +21°C° 0.3 mm 2 m/s 756 mmHg 93%
    22:00 +20°C° 0.4 mm 2 m/s 756 mmHg 94%
    23:00 +20°C° 0.4 mm 2 m/s 756 mmHg 94%

    Amanhã, 25 Setembro, Terça-feira

    Tempo Temperatura Precipitação Vento Pressão Humidade
    00:00 +20°C° 0.4 mm 2 m/s 756 mmHg 95%
    01:00 +20°C° 0 mm 2 m/s 756 mmHg 95%
    02:00 +20°C° 0 mm 2 m/s 756 mmHg 95%
    03:00 +20°C° 0 mm 2 m/s 755 mmHg 95%
    04:00 +20°C° 0 mm 2 m/s 755 mmHg 95%
    05:00 +19°C° 0 mm 2 m/s 755 mmHg 95%
    06:00 +19°C° 0 mm 2 m/s 755 mmHg 95%
    07:00 +20°C° 0 mm 2 m/s 755 mmHg 91%
    08:00 +22°C° 0 mm 3 m/s 755 mmHg 86%
    09:00 +24°C° 0 mm 3 m/s 755 mmHg 82%
    10:00 +25°C° 0 mm 3 m/s 755 mmHg 75%
    11:00 +26°C° 0 mm 3 m/s 755 mmHg 69%
    12:00 +27°C° 0 mm 3 m/s 755 mmHg 62%
    13:00 +28°C° 0 mm 3 m/s 755 mmHg 61%
    14:00 +28°C° 0 mm 3 m/s 754 mmHg 60%
    15:00 +28°C° 0 mm 3 m/s 754 mmHg 58%
    16:00 +26°C° 0 mm 2 m/s 754 mmHg 66%
    17:00 +25°C° 0 mm 2 m/s 754 mmHg 73%
    18:00 +23°C° 0 mm 2 m/s 754 mmHg 80%
    19:00 +21°C° 0 mm 2 m/s 754 mmHg 83%
    20:00 +21°C° 0 mm 2 m/s 755 mmHg 85%
    21:00 +20°C° 0 mm 2 m/s 755 mmHg 88%
    22:00 +20°C° 0 mm 2 m/s 755 mmHg 89%
    23:00 +20°C° 0 mm 2 m/s 755 mmHg 90%

    Depois de amanhã, 26 Setembro, Quarta-feira

    Tempo Temperatura Precipitação Vento Pressão Humidade
    00:00 +20°C° 0 mm 2 m/s 755 mmHg 90%
    01:00 +20°C° 0 mm 2 m/s 755 mmHg 91%
    02:00 +20°C° 0 mm 3 m/s 755 mmHg 91%
    03:00 +20°C° 0 mm 3 m/s 754 mmHg 92%
    04:00 +20°C° 0 mm 3 m/s 754 mmHg 92%
    05:00 +20°C° 0 mm 3 m/s 754 mmHg 92%
    06:00 +20°C° 0 mm 3 m/s 754 mmHg 92%
    07:00 +21°C° 0 mm 4 m/s 755 mmHg 90%
    08:00 +21°C° 0 mm 4 m/s 755 mmHg 87%
    09:00 +22°C° 0 mm 4 m/s 755 mmHg 85%
    10:00 +23°C° 0 mm 4 m/s 755 mmHg 79%
    11:00 +25°C° 0 mm 4 m/s 755 mmHg 74%
    12:00 +26°C° 0 mm 4 m/s 754 mmHg 69%
    13:00 +26°C° 0 mm 4 m/s 754 mmHg 70%
    14:00 +26°C° 0 mm 4 m/s 754 mmHg 70%
    15:00 +26°C° 0 mm 4 m/s 753 mmHg 71%
    16:00 +25°C° 0 mm 3 m/s 753 mmHg 75%
    17:00 +24°C° 0 mm 3 m/s 753 mmHg 80%
    18:00 +23°C° 0 mm 2 m/s 753 mmHg 84%
    19:00 +21°C° 0.2 mm 2 m/s 754 mmHg 86%
    20:00 +21°C° 0.2 mm 2 m/s 754 mmHg 88%
    21:00 +21°C° 0.2 mm 2 m/s 754 mmHg 91%
    22:00 +21°C° 0.1 mm 2 m/s 754 mmHg 91%
    23:00 +21°C° 0.1 mm 2 m/s 754 mmHg 91%

    27 Setembro, Quinta-feira

    Tempo Temperatura Precipitação Vento Pressão Humidade
    00:00 +21°C° 0.1 mm 3 m/s 754 mmHg 91%
    01:00 +21°C° 0.1 mm 3 m/s 753 mmHg 92%
    02:00 +20°C° 0.1 mm 3 m/s 753 mmHg 92%
    03:00 +20°C° 0.1 mm 4 m/s 753 mmHg 93%
    04:00 +20°C° 0.1 mm 4 m/s 753 mmHg 93%
    05:00 +20°C° 0.1 mm 4 m/s 753 mmHg 93%
    06:00 +20°C° 0.1 mm 4 m/s 753 mmHg 92%
    07:00 +21°C° 0 mm 4 m/s 753 mmHg 89%
    08:00 +21°C° 0 mm 4 m/s 753 mmHg 86%
    09:00 +22°C° 0 mm 4 m/s 754 mmHg 82%
    10:00 +23°C° 0 mm 4 m/s 754 mmHg 76%
    11:00 +26°C° 0 mm 4 m/s 753 mmHg 69%
    12:00 +27°C° 0 mm 4 m/s 753 mmHg 62%
    13:00 +27°C° 0 mm 4 m/s 753 mmHg 61%
    14:00 +27°C° 0 mm 4 m/s 753 mmHg 61%
    15:00 +27°C° 0 mm 4 m/s 752 mmHg 60%
    16:00 +26°C° 0 mm 4 m/s 753 mmHg 68%
    17:00 +23°C° 0 mm 4 m/s 753 mmHg 75%
    18:00 +22°C° 0 mm 3 m/s 753 mmHg 82%
    19:00 +21°C° 0 mm 3 m/s 753 mmHg 85%
    20:00 +21°C° 0 mm 4 m/s 754 mmHg 87%
    21:00 +20°C° 0 mm 4 m/s 754 mmHg 90%
    22:00 +20°C° 0 mm 4 m/s 754 mmHg 91%
    23:00 +20°C° 0 mm 4 m/s 754 mmHg 91%

    28 Setembro, Sexta-feira

    Tempo Temperatura Precipitação Vento Pressão Humidade
    00:00 +19°C° 0 mm 4 m/s 754 mmHg 92%
    01:00 +19°C° 0 mm 3 m/s 754 mmHg 92%
    02:00 +19°C° 0 mm 3 m/s 754 mmHg 92%
    03:00 +19°C° 0 mm 3 m/s 754 mmHg 92%
    04:00 +18°C° 0 mm 3 m/s 754 mmHg 92%
    05:00 +18°C° 0 mm 3 m/s 754 mmHg 92%
    06:00 +18°C° 0 mm 3 m/s 754 mmHg 93%
    07:00 +19°C° 0 mm 3 m/s 755 mmHg 86%
    08:00 +21°C° 0 mm 3 m/s 755 mmHg 79%
    09:00 +22°C° 0 mm 3 m/s 755 mmHg 72%
    10:00 +25°C° 0 mm 3 m/s 755 mmHg 67%
    11:00 +26°C° 0 mm 3 m/s 755 mmHg 62%
    12:00 +27°C° 0 mm 3 m/s 755 mmHg 57%
    13:00 +27°C° 0 mm 3 m/s 754 mmHg 58%
    14:00 +27°C° 0 mm 3 m/s 754 mmHg 58%
    15:00 +27°C° 0 mm 3 m/s 754 mmHg 58%
    16:00 +25°C° 0 mm 2 m/s 754 mmHg 65%
    17:00 +24°C° 0 mm 2 m/s 754 mmHg 73%
    18:00 +21°C° 0 mm 2 m/s 754 mmHg 80%
    19:00 +21°C° 0 mm 1 m/s 755 mmHg 83%
    20:00 +20°C° 0 mm 1 m/s 755 mmHg 86%
    21:00 +20°C° 0 mm 1 m/s 755 mmHg 89%
    22:00 +19°C° 0 mm 1 m/s 755 mmHg 88%
    23:00 +19°C° 0 mm 1 m/s 755 mmHg 88%

    29 Setembro, Sábado

    Tempo Temperatura Precipitação Vento Pressão Humidade
    00:00 +19°C° 0 mm 1 m/s 755 mmHg 87%
    01:00 +19°C° 0 mm 1 m/s 755 mmHg 86%
    02:00 +19°C° 0 mm 1 m/s 754 mmHg 86%
    03:00 +19°C° 0 mm 1 m/s 754 mmHg 85%
    04:00 +19°C° 0 mm 1 m/s 754 mmHg 86%
    05:00 +19°C° 0 mm 1 m/s 754 mmHg 87%
    06:00 +19°C° 0 mm 2 m/s 754 mmHg 89%
    07:00 +19°C° 0.3 mm 2 m/s 754 mmHg 89%
    08:00 +20°C° 0.3 mm 2 m/s 755 mmHg 89%
    09:00 +21°C° 0.3 mm 2 m/s 755 mmHg 89%
    10:00 +21°C° 1.8 mm 2 m/s 754 mmHg 91%
    11:00 +21°C° 1.8 mm 2 m/s 754 mmHg 93%
    12:00 +21°C° 1.8 mm 2 m/s 754 mmHg 95%
    13:00 +20°C° 3 mm 2 m/s 753 mmHg 95%
    14:00 +20°C° 3 mm 2 m/s 753 mmHg 96%
    15:00 +20°C° 3 mm 2 m/s 753 mmHg 96%
    16:00 +20°C° 3.3 mm 2 m/s 753 mmHg 96%
    17:00 +20°C° 3.3 mm 2 m/s 753 mmHg 96%
    18:00 +20°C° 3.3 mm 2 m/s 754 mmHg 96%
    19:00 +20°C° 1.4 mm 2 m/s 754 mmHg 96%
    20:00 +19°C° 1.4 mm 2 m/s 754 mmHg 96%
    21:00 +19°C° 1.4 mm 2 m/s 754 mmHg 96%
    22:00 +19°C° 0.7 mm 2 m/s 753 mmHg 96%
    23:00 +19°C° 0.7 mm 2 m/s 753 mmHg 95%
    Mostrar mais